Simultaneous Nadir Overpasses (SNOs) Predictions

Prediction of SNOs between LANDSAT-8 and METOP-A Satellite Orbit:

Table of predicted SNOs for the next 14.0 days since TLE Epoch: 5/28/2017
Index Date (LANDSAT-8) Time (LANDSAT-8) Lat,Lon (LANDSAT-8) SZA (LANDSAT-8 ) Date (METOP-A) Time (METOP-A) Lat,Lon (METOP-A) SZA (METOP-A ) Distance(km) Time Diff (sec)
1 05/29/2017 03:42:16 81.20, 165.59 61.90 05/29/2017 03:41:05 81.19, 165.49 61.86 1.74 71
2 05/29/2017 04:31:42 -81.21, -26.49 118.06 05/29/2017 04:31:44 -81.21, -26.56 118.07 1.21 2
3 05/31/2017 23:16:32 81.19,-128.08 61.47 05/31/2017 23:15:25 81.19,-128.08 61.45 0.26 67
4 06/01/2017 00:05:58 -81.21, 39.87 118.49 06/01/2017 00:06:04 -81.21, 39.88 118.48 0.39 6
5 06/03/2017 18:50:48 81.20, -61.42 61.14 06/03/2017 18:49:45 81.20, -61.29 61.13 2.23 63
6 06/03/2017 19:40:14 -81.22, 106.56 118.82 06/03/2017 19:40:24 -81.22, 106.69 118.80 2.23 10
7 06/06/2017 14:25:05 81.19, 4.84 60.80 06/06/2017 14:24:07 81.19, 4.72 60.76 2.00 58
8 06/06/2017 15:14:31 -81.22, 172.84 119.16 06/06/2017 15:14:46 -81.21, 172.71 119.17 2.20 15
9 06/09/2017 09:59:20 81.20, 71.43 60.55 06/09/2017 09:58:26 81.20, 71.47 60.54 0.75 54




NCC Satellite Simultaneous Nadir Overpasses (SNOs) Prediction Service
